TimeCST,TemperatureF,Dew PointF,Humidity,Sea Level PressureIn,VisibilityMPH,Wind Direction,Wind SpeedMPH,Gust SpeedMPH,PrecipitationIn,Events,Conditions,WindDirDegrees,DateUTC
12:53 AM,57.9,44.1,60,30.27,10.0,South,9.2,-,N/A,,Clear,180,2013-02-17 06:53:00
1:53 AM,57.9,44.1,60,30.25,10.0,South,10.4,-,N/A,,Clear,180,2013-02-17 07:53:00
2:53 AM,57.9,45.0,62,30.23,10.0,South,5.8,-,N/A,,Clear,180,2013-02-17 08:53:00
3:53 AM,55.9,45.0,67,30.23,10.0,South,5.8,-,N/A,,Clear,190,2013-02-17 09:53:00
4:53 AM,57.0,48.0,72,30.23,10.0,South,4.6,-,N/A,,Clear,190,2013-02-17 10:53:00
5:53 AM,53.1,46.9,80,30.23,10.0,South,3.5,-,N/A,,Clear,190,2013-02-17 11:53:00
6:53 AM,44.1,39.9,85,30.24,10.0,Calm,Calm,-,N/A,,Clear,0,2013-02-17 12:53:00
7:53 AM,51.1,46.9,86,30.24,10.0,Calm,Calm,-,N/A,,Clear,0,2013-02-17 13:53:00
8:53 AM,64.0,46.9,54,30.25,10.0,South,10.4,-,N/A,,Clear,190,2013-02-17 14:53:00
9:53 AM,66.0,46.0,48,30.25,10.0,South,11.5,-,N/A,,Clear,180,2013-02-17 15:53:00
10:53 AM,68.0,43.0,40,30.25,10.0,SSE,19.6,24.2,N/A,,Clear,160,2013-02-17 16:53:00
11:53 AM,69.1,45.0,42,30.23,10.0,SSE,18.4,27.6,N/A,,Clear,160,2013-02-17 17:53:00
12:53 PM,69.1,45.0,42,30.19,10.0,South,18.4,26.5,N/A,,Clear,170,2013-02-17 18:53:00
1:53 PM,70.0,46.9,44,30.17,10.0,SSE,20.7,26.5,N/A,,Clear,160,2013-02-17 19:53:00
2:53 PM,69.1,46.9,45,30.14,10.0,South,18.4,28.8,N/A,,Clear,170,2013-02-17 20:53:00
3:53 PM,69.1,46.9,45,30.12,10.0,SSE,18.4,-,N/A,,Mostly Cloudy,160,2013-02-17 21:53:00
4:53 PM,66.9,50.0,54,30.10,10.0,SSE,17.3,24.2,N/A,,Overcast,160,2013-02-17 22:53:00
5:53 PM,66.0,51.1,59,30.09,10.0,SSE,15.0,23.0,N/A,,Overcast,150,2013-02-17 23:53:00
6:53 PM,64.9,52.0,63,30.08,10.0,SSE,16.1,-,N/A,,Overcast,150,2013-02-18 00:53:00
7:53 PM,64.9,53.1,65,30.09,10.0,SSE,15.0,-,N/A,,Overcast,150,2013-02-18 01:53:00
8:53 PM,64.9,54.0,68,30.09,10.0,SSE,13.8,-,N/A,,Overcast,150,2013-02-18 02:53:00
9:53 PM,66.0,53.1,63,30.08,10.0,SSE,19.6,26.5,N/A,,Overcast,150,2013-02-18 03:53:00
11:53 PM,66.0,55.0,68,30.04,10.0,SSE,15.0,24.2,N/A,,Overcast,160,2013-02-18 05:53:00